User: anonymous   Login
Location: Unspecified
(0.0000°N, 0.0000°E)
Time: 08:54:08
(UTC+01:00)
Language:

Delta 2 Rocket - Orbit

View from above orbital plane
View from above orbital plane
View from above satellite
View from above satellite

Ground track
Ground track

The orbit data is extracted from the following two-line orbital elements,

1 20453U 90008B   15029.73338316  .00007499  00000-0  46048-3 0  1910
2 20453 035.6263 280.9808 0310926 161.8903 199.3171 14.77215251319240
Epoch (UTC): 29 January 2015 17:36:04
Eccentricity: 0.0310926
inclination: 35.6263°
perigee height: 420 km
apogee height: 856 km
right ascension of ascending node: 280.9808°
argument of perigee: 161.8903°
revolutions per day: 14.77215251
mean anomaly at epoch: 199.3171°
orbit number at epoch: 31924

The dashed part of the orbit path shows where the satellite is in the earth's shadow,  

DLR